Location: Unspecified
(0.0000°N, 0.0000°E)
Time: 02:23:15
(UTC+02:00)

Cosmos 2237 Rocket - Visible Passes

Search period start: 21 August 2014 00:00
Search period end: 31 August 2014 00:00
Orbit: 834 x 852 km, 71.0° (Epoch: 20 August)

Date Brightness Start Highest point End Pass type
(mag) Time Alt. Az. Time Alt. Az. Time Alt. Az.
21 Aug 5.0 07:34:23 10° SE 07:37:41 16° ESE 07:40:59 10° ENE visible
21 Aug 2.3 20:16:42 10° N 20:22:14 59° ENE 20:27:46 10° SSE visible
22 Aug 5.0 07:19:54 10° SE 07:22:57 15° ESE 07:25:59 10° ENE visible
23 Aug 5.1 07:05:28 10° SE 07:08:13 14° ESE 07:10:57 10° ENE visible
24 Aug 5.1 06:51:04 10° SE 06:53:28 13° ESE 06:55:52 10° E visible
24 Aug 5.3 21:20:33 10° W 21:21:50 11° WSW 21:23:06 10° WSW visible
25 Aug 5.2 06:36:45 10° SE 06:38:44 12° ESE 06:40:43 10° E visible
25 Aug 5.2 21:05:12 10° W 21:07:05 12° WSW 21:08:58 10° SW visible
26 Aug 5.2 06:22:35 10° ESE 06:24:00 11° ESE 06:25:25 10° E visible
26 Aug 5.2 20:50:02 10° W 20:52:21 13° WSW 20:54:40 10° SW visible
27 Aug 5.4 06:09:10 10° ESE 06:09:15 10° ESE 06:09:21 10° ESE visible
27 Aug 5.1 20:34:56 10° WNW 20:37:36 14° WSW 20:40:17 10° SW visible
28 Aug 2.3 07:32:49 10° SSW 07:38:19 55° WNW 07:43:50 10° N visible
29 Aug 2.3 07:18:02 10° SSW 07:23:35 59° WNW 07:29:08 10° N visible
30 Aug 2.2 07:03:16 10° SSW 07:08:51 63° WNW 07:14:26 10° N visible
